STARLINK-11142, 59957

Orbit data source: Space-Track

STARLINK-11142, 59957 is a payload satellite owned by SpaceX/Seattle (US) in LEO that was launched on Wed, 05 Jun 2024 UTC via an FALCON 9 launch vehicle from the Air Force Eastern Test Range (AFETR). Payload-class satellites include a variety of spacecraft equipped with specific instruments for various scientific and technological missions. These include communications satellites like Starlink; space stations such as the ISS; scientific satellites like the Hubble; Earth observation satellites from companies like Planet Labs, Umbra, and HawkEye 360; GPS; miniature CubeSats for education and research; and military/defense satellites.

Loading next visibility...
Identifier
59957, 2024-107N
Orbit
LEO
Country
Flag of USUS
Related business
Manufacturer
SpaceX/Seattle
Mission
Operational spacecraft
Bus & Motor
STARLINK V2MD, Unknown motor
Mass
960 kg wet, ~910 kg dry
Launch date (UTC)
2024-06-05 (1 year ago)
Launch vehicle
FALCON 9
Launch site
Air Force Eastern Test Range (AFETR)
Object type
Payload
Rocket body
Debris
Shape & HBR
Unknown
Radar Cross Section
Large (>1 m²)

Expand to show TLE details & history
Last TLE update: 1 day ago

TLE from 1 day ago
0 STARLINK-11142
1 59957U 24107N   25260.59470285  .00003255  00000-0  31711-4 0  9996
2 59957  53.1595  24.2500 0001045  95.3051 264.8086 15.69714032 74970
Epoch: 2025-09-17T14:16Z
TLE epoch observation values (Epoch: 2025-09-17T14:16:22.326Z)
Latitude
-0.00002°
Longitude
173.38855°
Altitude
360.694 km
Speed
7.694 km/s
True Right ascension
01h 36m 59s
True Declination
0° 00' 00"
Sunlit
Object was in full shadow at epoch
Visualization orbit readout
Latitude
Unknown
Longitude
Unknown
Altitude
Unknown
Speed
Unknown
Apparent Right ascension
Unknown
Apparent Declination
Unknown
Sunlit
N/A
Visualization observer readout
Local Sidereal Time
11:59:17
Azimuth
Unknown
Elevation
Unknown
Doppler factor
Unknown
Orbital elements
Apogee altitude
360.68 km
Perigee altitude
359.272 km
Semi-major axis
6,738.113 km
Eccentricity
0.0001
Inclination
53.1595°
RAAN
24.25°
Arg. of periapsis
95.3051°
True anomaly
264.79667°
Mean anomaly
264.8086°
Eccentric anomaly
264.80264°
Mean motion
3.92406 °/min
Orbital period
91.74 mins
BSTAR
0.000031711
Loading maneuver chart data...
Computing Atmospheric mass density...
Loading historical data...
Loading historical data...
Loading historical data...
Loading historical data...
Loading historical data...
Loading historical data...
Loading historical data...

Documentation

Showing up to 5 results
|